Location: Newark
(6.9000°N, 10.0000°E)
Time: 01:35:49
(UTC+00:00)

Hubble Space Telescope - Pass Details

Date: 27 October 2019
Orbit: 536 x 540 km, 28.5° (Epoch: 14 November)

Event Time Altitude Azimuth Distance (km) Brightness Sun altitude
Exits shadow 03:25:47 20° 24° (NNE) 1,268 2.8 -25.4°
Drops below altitude 10° 03:27:20 10° 38° (NE) 1,771 3.7 -25.0°
Sets 03:29:44 0° 48° (NE) 2,660 4.8 -24.4°
